"2009-08-15 00:00:00",1152289,4.049,6.076,4.135,0.792,18.44,108.8211,21.87,22.92,38.29,0,111,13.17,22.70,328.1
"2009-08-15 00:00:30",1152290,2.841,6.319,7.845,0.799,18.52,108.8214,21.87,22.91,38.53,0,111,13.17,22.70,328.3
"2009-08-15 00:01:00",1152291,3.389,0.218,6.273,0.82,18.48,108.8199,21.86,22.9,38.61,0,111,13.17,22.69,322.2
"2009-08-15 00:01:30",1152292,2.649,6.893,8.13,0.531,18.47,108.814,21.85,22.88,38.79,0,111,13.17,22.68,328.9
"2009-08-15 00:02:00",1152293,3.7,10.9,7.442,1.235,18.44,108.8018,21.82,22.87,38.76,0,111,13.17,22.65,332.9
"2009-08-15 00:02:30",1152294,5.771,11.38,2.62,0.561,18.28,108.7944,21.8,22.87,38.09,0,111,13.17,22.63,333.4
"2009-08-15 00:03:00",1152295,4.813,11.25,7.713,0.538,18.53,108.7917,21.79,22.86,37.59,0,111,13.17,22.62,333.2
"2009-08-15 00:03:30",1152296,5.343,7.839,7.67,0.601,18.53,108.7898,21.79,22.85,36.87,0,111,13.17,22.61,329.8
"2009-08-15 00:04:00",1152297,4.626,358.8,6.433,0.539,18.78,108.7896,21.79,22.84,36.38,0,111,13.17,22.61,320.8
"2009-08-15 00:04:30",1152298,3.376,9.06,5.569,0.789,18.52,108.7908,21.79,22.84,38.5,0,111,13.17,22.62,331.1
"2009-08-15 00:05:00",1152299,3.512,8.36,5.817,1.308,18.46,108.792,21.79,22.84,39.24,0,111,13.17,22.62,330.4
"2009-08-15 00:05:30",1152300,4.563,359.1,6.692,0.701,18.42,108.792,21.79,22.81,39.02,0,111,13.17,22.62,321.1
"2009-08-15 00:06:00",1152301,3.949,10.03,6.991,0.784,18.37,108.7917,21.79,22.81,38.88,0,111,13.17,22.62,332.0
"2009-08-15 00:06:30",1152302,3.635,356.1,6.33,1.266,18.51,108.792,21.79,22.82,39.28,0,111,13.17,22.62,318.1
"2009-08-15 00:07:00",1152303,2.749,4.731,6.212,0.586,18.54,108.7897,21.79,22.79,38.76,0,111,13.17,22.61,326.7
"2009-08-15 00:07:30",1152304,2.179,10.77,8.73,0.598,18.45,108.7847,21.77,22.78,38.84,0,111,13.17,22.60,332.8
"2009-08-15 00:08:00",1152305,3.962,1.048,5.391,0.865,18.29,108.7765,21.75,22.79,39.87,0,111,13.17,22.58,323.0
"2009-08-15 00:08:30",1152306,2.798,8.56,9.13,1.261,18.4,108.7622,21.72,22.77,40.88,0,111,13.17,22.54,330.6
"2009-08-15 00:09:00",1152307,3.863,2.064,5.198,0.577,18.19,108.7592,21.71,22.76,41.23,0,111,13.17,22.54,324.1
"2009-08-15 00:09:30",1152308,3.192,1.121,7.228,1.255,18.53,108.7592,21.71,22.77,41.52,0,111,13.17,22.54,323.1
"2009-08-15 00:10:00",1152309,2.08,11.6,10.65,0.545,18.41,108.7592,21.71,22.75,41.7,0,111,13.17,22.54,333.6
"2009-08-15 00:10:30",1152310,3.707,10.41,8.76,0.82,18.26,108.7589,21.71,22.75,41.62,0,111,13.17,22.53,332.4
"2009-08-15 00:11:00",1152311,4.479,354,2.52,0.54,18.32,108.7592,21.71,22.73,40.14,0,111,13.17,22.54,316.0
"2009-08-15 00:11:30",1152312,4.134,355.8,3.273,0.477,18.38,108.755,21.7,22.72,40.36,0,111,13.17,22.52,317.8
"2009-08-15 00:12:00",1152313,4.699,354.9,4.762,1.102,18.3,108.7362,21.65,22.72,40.21,0,111,13.17,22.48,316.9
"2009-08-15 00:12:30",1152314,4.224,356.3,3.345,0.861,18.3,108.7266,21.62,22.71,40.15,0,111,13.17,22.45,318.3
"2009-08-15 00:13:00",1152315,4.481,356.8,4.195,0.768,18.33,108.7255,21.62,22.69,41.61,0,111,13.17,22.45,318.8
"2009-08-15 00:13:30",1152316,3.606,3.303,4.999,0.732,18.32,108.7145,21.59,22.66,41.21,0,111,13.17,22.42,325.3
"2009-08-15 00:14:00",1152317,4.035,357.6,5.15,0.656,18.26,108.6954,21.54,22.64,40.58,0,111,13.17,22.37,319.6
"2009-08-15 00:14:30",1152318,3.012,10.31,6.023,0.44,18.2,108.692,21.54,22.62,40.31,0,111,13.17,22.36,332.3
"2009-08-15 00:15:00",1152319,3.891,8.78,3.789,0.414,18.15,108.6909,21.53,22.58,40.39,0,111,13.17,22.36,330.8
"2009-08-15 00:15:30",1152320,3.364,0.734,2.428,0.267,18.48,108.6744,21.49,22.57,37.84,0,111,13.17,22.32,322.7
"2009-08-15 00:16:00",1152321,2.988,358.7,4.317,0.332,18.62,108.6612,21.46,22.54,36.09,0,111,13.17,22.28,320.7
"2009-08-15 00:16:30",1152322,3.989,349.7,1.572,0.33,18.6,108.6586,21.45,22.52,35.49,0,111,13.17,22.28,311.7
"2009-08-15 00:17:00",1152323,3.535,4.35,13.02,0.717,18.43,108.6586,21.45,22.5,35.07,0,111,13.17,22.28,326.4
"2009-08-15 00:17:30",1152324,2.868,11.91,4.446,0.469,18.04,108.6586,21.45,22.49,37.46,0,111,13.17,22.28,333.9
"2009-08-15 00:18:00",1152325,2.141,2.857,6.964,0.454,18.34,108.6586,21.45,22.48,37.2,0,111,13.17,22.28,324.9
"2009-08-15 00:18:30",1152326,2.076,7.309,4.824,0.475,18.19,108.6583,21.45,22.48,38.63,0,111,13.17,22.28,329.3
"2009-08-15 00:19:00",1152327,3.496,10.14,8.54,0.424,18.03,108.6575,21.45,22.48,38.61,0,111,13.17,22.27,332.1
"2009-08-15 00:19:30",1152328,2.778,358.3,5.403,0.488,18.27,108.6578,21.45,22.47,38.22,0,111,13.17,22.27,320.3
"2009-08-15 00:20:00",1152329,2.718,355.9,9.41,0.988,18.15,108.6583,21.45,22.47,38.21,0,111,13.17,22.28,317.9
"2009-08-15 00:20:30",1152330,2.918,357,9.83,1.045,18.1,108.6586,21.45,22.46,38.02,0,111,13.17,22.28,319.0
"2009-08-15 00:21:00",1152331,1.852,3.087,9.87,0.632,18.16,108.6586,21.45,22.48,38.38,0,111,13.17,22.28,325.1
"2009-08-15 00:21:30",1152332,3.265,17.17,7.884,0.581,17.97,108.6586,21.45,22.48,38.15,0,111,13.17,22.28,339.2
"2009-08-15 00:22:00",1152333,2.791,6.824,3.789,1.009,18.04,108.6586,21.45,22.47,37.91,0,111,13.17,22.28,328.8
"2009-08-15 00:22:30",1152334,1.622,9.02,8.8,0.716,18.4,108.6586,21.45,22.47,36.98,0,111,13.17,22.28,331.0
"2009-08-15 00:23:00",1152335,1.768,6.456,10.72,0.56,18.19,108.6586,21.45,22.47,37.74,0,111,13.17,22.28,328.5
"2009-08-15 00:23:30",1152336,2.046,0.514,11.79,0.889,18.22,108.6586,21.45,22.46,38.26,0,111,13.17,22.28,322.5
"2009-08-15 00:24:00",1152337,2.017,4.513,7.654,0.489,18.15,108.6586,21.45,22.48,38.07,0,111,13.17,22.28,326.5
"2009-08-15 00:24:30",1152338,1.956,2.3,12.26,0.856,18.21,108.6606,21.45,22.48,38.24,0,111,13.17,22.28,324.3
"2009-08-15 00:25:00",1152339,2.045,7.791,10.46,0.872,18.14,108.6659,21.47,22.49,38.01,0,111,13.17,22.30,329.8
"2009-08-15 00:25:30",1152340,1.203,8.17,10.3,0.454,18.14,108.6702,21.48,22.49,38.05,0,111,13.17,22.31,330.2
"2009-08-15 00:26:00",1152341,1.902,7.192,4.331,0.376,17.96,108.687,21.52,22.5,37.72,0,111,13.17,22.35,329.2
"2009-08-15 00:26:30",1152342,2.356,6.984,5.378,0.422,17.99,108.6924,21.54,22.5,37.55,0,111,13.17,22.36,329.0
"2009-08-15 00:27:00",1152343,1.869,6.899,5.18,0.351,18.08,108.692,21.54,22.52,37.71,0,111,13.17,22.36,328.9
"2009-08-15 00:27:30",1152344,1.99,1.103,4.91,0.495,18.05,108.692,21.54,22.53,37.63,0,111,13.17,22.36,323.1
"2009-08-15 00:28:00",1152345,2.389,5.097,8.6,0.186,17.94,108.6932,21.54,22.54,37.59,0,111,13.17,22.37,327.1
"2009-08-15 00:28:30",1152346,1.834,7.298,6.814,0.311,18.05,108.7008,21.56,22.55,37.44,0,111,13.17,22.39,329.3
"2009-08-15 00:29:00",1152347,1.75,19.56,5.385,0.195,17.96,108.7165,21.6,22.56,37.37,0,111,13.17,22.43,341.6
"2009-08-15 00:29:30",1152348,1.753,19.55,1.853,0.093,18.03,108.7242,21.62,22.58,37.39,0,111,13.17,22.45,341.5
"2009-08-15 00:30:00",1152349,1.804,9.64,5.49,0.553,18.13,108.7248,21.62,22.59,37.53,0,111,13.17,22.45,331.6
"2009-08-15 00:30:30",1152350,1.877,14.62,7.901,0.497,18.07,108.7251,21.62,22.61,37.9,0,111,13.17,22.45,336.6
"2009-08-15 00:31:00",1152351,1.015,9.32,13.71,0.553,18.28,108.7319,21.64,22.63,37.95,0,111,13.17,22.47,331.3
"2009-08-15 00:31:30",1152352,2.09,20.95,3.55,0.245,18.02,108.7487,21.68,22.64,37.94,0,111,13.17,22.51,343.0
"2009-08-15 00:32:00",1152353,2.121,23.53,2.522,0.148,18.04,108.7577,21.7,22.65,37.84,0,111,13.17,22.53,345.5
"2009-08-15 00:32:30",1152354,1.966,18.16,4.389,0.413,18.13,108.7577,21.7,22.67,37.72,0,111,13.17,22.53,340.2
"2009-08-15 00:33:00",1152355,2.442,18.36,3.619,0.377,18.09,108.7573,21.7,22.69,37.51,0,111,13.17,22.53,340.4
"2009-08-15 00:33:30",1152356,2.389,15.83,4.836,0.276,18.08,108.7746,21.75,22.69,37.32,0,111,13.17,22.58,337.8
"2009-08-15 00:34:00",1152357,2.393,11.78,7.597,0.572,18.17,108.788,21.78,22.72,37.1,0,111,13.17,22.61,333.8
"2009-08-15 00:34:30",1152358,1.785,14.32,4.556,0.309,18.18,108.788,21.78,22.75,36.51,0,111,13.17,22.61,336.3
"2009-08-15 00:35:00",1152359,3.165,11.63,3.584,0.514,18.13,108.7884,21.78,22.77,36.22,0,111,13.17,22.61,333.6
"2009-08-15 00:35:30",1152360,2.874,21.3,1.853,0.16,18.11,108.8095,21.84,22.8,36.33,0,111,13.17,22.67,343.3
"2009-08-15 00:36:00",1152361,3.195,10.79,6.798,0.469,18.11,108.8196,21.86,22.81,35.28,0,111,13.17,22.69,332.8
"2009-08-15 00:36:30",1152362,2.869,8.69,2.336,0.359,18.21,108.8168,21.86,22.83,34.7,0,111,13.17,22.68,330.7
"2009-08-15 00:37:00",1152363,2.794,6.669,5.538,0.467,18.29,108.8188,21.86,22.86,34.98,0,111,13.17,22.69,328.7
"2009-08-15 00:37:30",1152364,3.468,3.292,2.739,0.279,18.25,108.8373,21.91,22.86,35.19,0,111,13.17,22.74,325.3
"2009-08-15 00:38:00",1152365,3.702,12.03,5.07,0.273,18.21,108.8431,21.92,22.88,34.94,0,111,13.17,22.75,334.0
"2009-08-15 00:38:30",1152366,3.485,12.93,2.862,0.55,18.2,108.8482,21.94,22.89,34.89,0,111,13.17,22.76,334.9
"2009-08-15 00:39:00",1152367,3.249,11.77,3.405,0.525,18.24,108.8503,21.94,22.91,35.03,0,111,13.17,22.77,333.8
"2009-08-15 00:39:30",1152368,3.154,18.14,1.437,0.338,18.3,108.8521,21.95,22.92,35.37,0,111,13.17,22.77,340.1
"2009-08-15 00:40:00",1152369,2.805,20,1.77,0.183,18.31,108.8515,21.94,22.93,35.45,0,111,13.17,22.77,342.0
"2009-08-15 00:40:30",1152370,2.686,23.35,2.457,0.257,18.33,108.8515,21.94,22.95,35.6,0,111,13.17,22.77,345.4
"2009-08-15 00:41:00",1152371,3.073,21.12,3.318,0.275,18.44,108.8577,21.96,22.95,35,0,111,13.17,22.79,343.1
"2009-08-15 00:41:30",1152372,2.85,23.27,2.1,0.206,18.37,108.8587,21.96,22.97,33.82,0,111,13.17,22.79,345.3
"2009-08-15 00:42:00",1152373,2.771,22.48,1.796,0.124,18.35,108.8658,21.98,22.99,34.19,0,111,13.17,22.81,344.5
"2009-08-15 00:42:30",1152374,2.68,21.67,2.535,0.209,18.43,108.8774,22.01,22.97,34.39,0,111,13.17,22.84,343.7
"2009-08-15 00:43:00",1152375,2.606,20.85,1.825,0.159,18.4,108.8867,22.04,22.99,34.26,0,111,13.17,22.86,342.9
"2009-08-15 00:43:30",1152376,2.165,16.11,4.019,0.452,18.43,108.888,22.04,23,34.47,0,111,13.17,22.87,338.1
"2009-08-15 00:44:00",1152377,2.826,19.48,2.096,0.401,18.3,108.8861,22.03,23,33.93,0,111,13.17,22.86,341.5
"2009-08-15 00:44:30",1152378,2.956,19.54,2.103,0.24,18.33,108.8877,22.04,23.01,33.68,0,111,13.17,22.87,341.5
"2009-08-15 00:45:00",1152379,3.104,20.44,2.057,0.228,18.32,108.8889,22.04,23.02,33.84,0,111,13.17,22.87,342.4
"2009-08-15 00:45:30",1152380,3.437,22.79,1.521,0.29,18.33,108.8891,22.04,23.03,33.54,0,111,13.17,22.87,344.8
"2009-08-15 00:46:00",1152381,3.495,19.75,1.356,0.23,18.3,108.8978,22.06,23.03,33.56,0,111,13.17,22.89,341.8
"2009-08-15 00:46:30",1152382,3.142,20.09,1.992,0.248,18.43,108.9025,22.08,23.05,33.37,0,111,13.17,22.90,342.1
"2009-08-15 00:47:00",1152383,3.008,22.9,1.739,0.239,18.42,108.9095,22.09,23.05,32.84,0,111,13.17,22.92,344.9
"2009-08-15 00:47:30",1152384,3.043,23.95,2.131,0.308,18.44,108.9197,22.12,23.07,32.73,0,111,13.17,22.95,346.0
"2009-08-15 00:48:00",1152385,3.142,23.1,3.136,0.179,18.49,108.9226,22.13,23.07,32.45,0,111,13.17,22.96,345.1
"2009-08-15 00:48:30",1152386,3.237,20.3,1.905,0.218,18.46,108.9269,22.14,23.1,32.26,0,111,13.17,22.97,342.3
"2009-08-15 00:49:00",1152387,3.08,25.75,2.826,0.394,18.4,108.9269,22.14,23.09,32.16,0,111,13.17,22.97,347.8
"2009-08-15 00:49:30",1152388,3.455,26.57,1.38,0.177,18.39,108.9266,22.14,23.1,32.25,0,111,13.17,22.97,348.6
"2009-08-15 00:50:00",1152389,3.223,27.1,2.836,0.147,18.52,108.9263,22.14,23.11,32.2,0,111,13.17,22.97,349.1
"2009-08-15 00:50:30",1152390,3.026,23.98,2.929,0.432,18.47,108.9269,22.14,23.11,31.8,0,111,13.17,22.97,346.0
"2009-08-15 00:51:00",1152391,2.644,22.99,2.526,0.166,18.5,108.9263,22.14,23.11,31.79,0,111,13.17,22.97,345.0
"2009-08-15 00:51:30",1152392,2.531,19.21,2.935,0.291,18.58,108.9278,22.14,23.12,31.57,0,111,13.17,22.97,341.2
"2009-08-15 00:52:00",1152393,2.195,13.57,5.805,0.296,18.57,108.9278,22.14,23.12,31.35,0,111,13.17,22.97,335.6
"2009-08-15 00:52:30",1152394,1.962,12.69,3.407,0.217,18.53,108.9281,22.14,23.12,31.28,0,111,13.17,22.97,334.7
"2009-08-15 00:53:00",1152395,2.249,16.92,3.446,0.257,18.46,108.9269,22.14,23.12,31.36,0,111,13.17,22.97,338.9
"2009-08-15 00:53:30",1152396,2.237,18.91,3.147,0.308,18.43,108.9278,22.14,23.13,31.5,0,111,13.17,22.97,340.9
"2009-08-15 00:54:00",1152397,1.834,16.5,4.534,0.571,18.5,108.9278,22.14,23.12,31.57,0,111,13.17,22.97,338.5
"2009-08-15 00:54:30",1152398,2.029,18.42,2.986,0.436,18.45,108.9278,22.14,23.14,31.42,0,111,13.17,22.97,340.4
"2009-08-15 00:55:00",1152399,2.264,18.52,3.887,0.379,18.45,108.9278,22.14,23.13,31.33,0,111,13.17,22.97,340.5
"2009-08-15 00:55:30",1152400,2.381,20.24,2.195,0.226,18.43,108.9283,22.14,23.14,31.24,0,111,13.17,22.97,342.2
"2009-08-15 00:56:00",1152401,2.497,21.98,2.53,0.174,18.41,108.9348,22.16,23.15,31.24,0,111,13.17,22.99,344.0
"2009-08-15 00:56:30",1152402,2.506,22.12,1.937,0.178,18.41,108.9416,22.18,23.15,31.28,0,111,13.17,23.01,344.1
"2009-08-15 00:57:00",1152403,2.415,22.85,1.98,0.182,18.42,108.9497,22.2,23.16,31.45,0,111,13.17,23.03,344.9
"2009-08-15 00:57:30",1152404,2.436,20.26,1.295,0.108,18.41,108.9598,22.22,23.17,31.6,0,111,13.17,23.05,342.3
"2009-08-15 00:58:00",1152405,2.256,18.9,1.514,0.099,18.45,108.9612,22.23,23.16,31.6,0,111,13.17,23.06,340.9
"2009-08-15 00:58:30",1152406,2.212,22.98,2.273,0.123,18.47,108.9618,22.23,23.17,31.52,0,111,13.17,23.06,345.0
"2009-08-15 00:59:00",1152407,2.283,20.55,3.274,0.147,18.48,108.9621,22.23,23.19,31.32,0,111,13.17,23.06,342.5
"2009-08-15 00:59:30",1152408,2.424,18.33,1.99,0.181,18.48,108.9618,22.23,23.19,31.15,0,111,13.17,23.06,340.3
"2009-08-15 01:00:00",1152409,2.31,19.94,2.844,0.197,18.49,108.9609,22.23,23.2,31.25,0,111,13.17,23.06,341.9
"2009-08-15 01:00:30",1152410,2.335,18.2,2.203,0.178,18.55,108.9627,22.23,23.21,31.19,0,111,13.17,23.06,340.2
"2009-08-15 01:01:00",1152411,2.251,21.01,2.908,0.186,18.52,108.9641,22.23,23.22,31.05,0,111,13.17,23.06,343.0
"2009-08-15 01:01:30",1152412,2.353,22.15,1.788,0.155,18.47,108.9689,22.25,23.23,31.01,0,111,13.17,23.08,344.1
"2009-08-15 01:02:00",1152413,2.087,24.8,2.429,0.182,18.45,108.9716,22.25,23.22,31.16,0,111,13.17,23.08,346.8
"2009-08-15 01:02:30",1152414,1.883,27.54,1.853,0.12,18.45,108.9764,22.27,23.25,31.68,0,111,13.17,23.10,349.5
"2009-08-15 01:03:00",1152415,1.891,25.38,1.929,0.171,18.45,108.9846,22.29,23.26,31.81,0,111,13.17,23.12,347.4
"2009-08-15 01:03:30",1152416,1.945,25.36,2.177,0.13,18.48,108.9891,22.3,23.26,31.3,0,111,13.17,23.13,347.4
"2009-08-15 01:04:00",1152417,1.931,27.4,1.497,0.146,18.44,108.9888,22.3,23.26,31.68,0,111,13.17,23.13,349.4
"2009-08-15 01:04:30",1152418,1.908,22.77,4.121,0.145,18.48,108.9939,22.31,23.28,31.74,0,111,13.17,23.14,344.8
"2009-08-15 01:05:00",1152419,1.821,23.42,2.478,0.137,18.52,108.9913,22.3,23.27,31.26,0,111,13.17,23.13,345.4
"2009-08-15 01:05:30",1152420,1.896,24.28,2.488,0.165,18.53,108.9925,22.31,23.27,31.05,0,111,13.17,23.14,346.3
"2009-08-15 01:06:00",1152421,1.856,22.65,2.686,0.174,18.51,108.9925,22.31,23.26,30.98,0,111,13.17,23.14,344.6
"2009-08-15 01:06:30",1152422,1.945,20.22,2.183,0.132,18.58,108.9914,22.3,23.28,30.96,0,111,13.17,23.13,342.2
"2009-08-15 01:07:00",1152423,1.86,18.06,2.267,0.124,18.59,108.9897,22.3,23.28,31.09,0,111,13.17,23.13,340.1
"2009-08-15 01:07:30",1152424,1.876,17.29,1.745,0.122,18.63,108.9922,22.31,23.27,31.26,0,111,13.17,23.14,339.3
"2009-08-15 01:08:00",1152425,2.035,17.5,1.477,0.125,18.62,108.9931,22.31,23.26,31.39,0,111,13.17,23.14,339.5
"2009-08-15 01:08:30",1152426,2.113,18.68,1.996,0.105,18.62,108.9917,22.3,23.27,31.49,0,111,13.17,23.13,340.7
"2009-08-15 01:09:00",1152427,2.204,14.65,2.978,0.186,18.67,108.9932,22.31,23.27,31.7,0,111,13.17,23.14,336.6
"2009-08-15 01:09:30",1152428,2.33,17.37,1.788,0.156,18.69,108.992,22.31,23.27,31.91,0,111,13.17,23.14,339.4
"2009-08-15 01:10:00",1152429,2.459,18.43,2.549,0.188,18.69,108.9922,22.31,23.28,31.97,0,111,13.17,23.14,340.4
"2009-08-15 01:10:30",1152430,2.592,18.75,1.985,0.14,18.7,108.9897,22.3,23.27,31.87,0,111,13.17,23.13,340.8
"2009-08-15 01:11:00",1152431,2.937,16.21,1.723,0.15,18.72,108.9903,22.3,23.27,31.82,0,111,13.17,23.13,338.2
"2009-08-15 01:11:30",1152432,2.587,18.7,2.723,0.191,18.74,108.9855,22.29,23.27,31.83,0,111,13.18,23.12,340.7
"2009-08-15 01:12:00",1152433,2.569,16.54,3.052,0.169,18.74,108.9833,22.28,23.28,31.8,0,111,13.17,23.11,338.5
"2009-08-15 01:12:30",1152434,2.87,14.53,1.917,0.239,18.77,108.9768,22.27,23.28,31.77,0,111,13.18,23.10,336.5
"2009-08-15 01:13:00",1152435,2.344,15.57,2.093,0.139,18.79,108.9726,22.26,23.28,31.7,0,111,13.17,23.09,337.6
"2009-08-15 01:13:30",1152436,2.221,14.98,2.317,0.137,18.82,108.9687,22.25,23.28,31.65,0,111,13.17,23.08,337.0
"2009-08-15 01:14:00",1152437,2.269,18.69,1.687,0.121,18.8,108.967,22.24,23.27,31.56,0,111,13.17,23.07,340.7
"2009-08-15 01:14:30",1152438,2.386,16.86,1.401,0.152,18.81,108.9643,22.23,23.28,31.38,0,111,13.17,23.06,338.9
"2009-08-15 01:15:00",1152439,2.382,19.08,1.889,0.15,18.81,108.9631,22.23,23.26,31.32,0,111,13.17,23.06,341.1
"2009-08-15 01:15:30",1152440,2.527,18.81,4.059,0.185,18.81,108.9658,22.24,23.26,31.44,0,111,13.17,23.07,340.8
"2009-08-15 01:16:00",1152441,2.219,23.2,2.652,0.25,18.81,108.9677,22.24,23.25,31.41,0,111,13.17,23.07,345.2
"2009-08-15 01:16:30",1152442,2.283,20.76,3.265,0.105,18.82,108.9695,22.25,23.25,31.31,0,111,13.17,23.08,342.8
"2009-08-15 01:17:00",1152443,2.122,19.8,4.876,0.135,18.89,108.9698,22.25,23.24,31.46,0,111,13.17,23.08,341.8
"2009-08-15 01:17:30",1152444,2.255,22.02,3.698,0.221,18.93,108.9651,22.24,23.23,31.67,0,111,13.17,23.07,344.0
"2009-08-15 01:18:00",1152445,2.027,27.51,2.685,0.22,18.9,108.9501,22.2,23.22,31.46,0,111,13.17,23.03,349.5
"2009-08-15 01:18:30",1152446,2.13,26.29,2.187,0.14,18.9,108.9379,22.17,23.22,31.15,0,111,13.17,23.00,348.3
"2009-08-15 01:19:00",1152447,2.055,25.45,1.856,0.2,18.89,108.9364,22.16,23.21,31.05,0,111,13.18,22.99,347.5
"2009-08-15 01:19:30",1152448,2.025,26.46,3.093,0.223,18.9,108.9376,22.17,23.19,31.14,0,111,13.18,23.00,348.5
"2009-08-15 01:20:00",1152449,2.181,28.01,2.539,0.284,18.89,108.9252,22.13,23.18,31.34,0,111,13.18,22.96,350.0
"2009-08-15 01:20:30",1152450,2.187,28.35,1.997,0.217,18.95,108.907,22.09,23.16,31.38,0,111,13.18,22.92,350.4
"2009-08-15 01:21:00",1152451,2.06,28.7,1.78,0.153,18.94,108.9039,22.08,23.15,31.41,0,111,13.18,22.91,350.7
"2009-08-15 01:21:30",1152452,2.332,28.29,1.627,0.323,18.94,108.8991,22.07,23.13,31.33,0,111,13.18,22.90,350.3
"2009-08-15 01:22:00",1152453,2.279,26.89,1.873,0.146,18.97,108.8738,22,23.1,31.47,0,111,13.18,22.83,348.9
"2009-08-15 01:22:30",1152454,2.251,26.66,1.766,0.168,18.94,108.8701,21.99,23.07,31.49,0,111,13.18,22.82,348.7
"2009-08-15 01:23:00",1152455,2.142,27.49,2.559,0.285,18.93,108.8634,21.98,23.04,31.55,0,111,13.18,22.80,349.5
"2009-08-15 01:23:30",1152456,2.087,28.61,2.168,0.31,18.92,108.839,21.91,23.03,31.46,0,111,13.18,22.74,350.6
"2009-08-15 01:24:00",1152457,2.162,27.65,1.746,0.168,18.89,108.8364,21.91,22.98,31.46,0,111,13.18,22.73,349.6
"2009-08-15 01:24:30",1152458,2.248,22.95,2.66,0.174,18.91,108.8179,21.86,22.97,31.63,0,111,13.18,22.69,345.0
"2009-08-15 01:25:00",1152459,2.492,20.89,2.488,0.165,18.92,108.803,21.82,22.93,32.24,0,111,13.18,22.65,342.9
"2009-08-15 01:25:30",1152460,2.403,23.36,2.134,0.198,18.89,108.8027,21.82,22.91,32.04,0,111,13.18,22.65,345.4
"2009-08-15 01:26:00",1152461,2.24,28.99,1.619,0.202,18.89,108.792,21.79,22.88,31.65,0,111,13.18,22.62,351.0
"2009-08-15 01:26:30",1152462,2.01,28.56,1.986,0.163,18.89,108.769,21.73,22.86,31.56,0,111,13.18,22.56,350.6
"2009-08-15 01:27:00",1152463,2.138,25.34,2.626,0.168,18.9,108.769,21.73,22.84,31.69,0,111,13.18,22.56,347.3
"2009-08-15 01:27:30",1152464,2.265,23.69,2.698,0.133,18.93,108.7574,21.7,22.79,32.04,0,111,13.18,22.53,345.7
"2009-08-15 01:28:00",1152465,2.19,24.58,2.553,0.149,18.94,108.7372,21.65,22.76,32.25,0,111,13.18,22.48,346.6
"2009-08-15 01:28:30",1152466,2.091,26.74,2.04,0.191,18.95,108.7352,21.65,22.75,32.17,0,111,13.18,22.47,348.7
"2009-08-15 01:29:00",1152467,1.97,28.48,2.145,0.13,18.95,108.7338,21.64,22.73,32.01,0,111,13.18,22.47,350.5
"2009-08-15 01:29:30",1152468,2.151,29.21,2.162,0.197,19,108.7069,21.57,22.71,31.97,0,111,13.18,22.40,351.2
"2009-08-15 01:30:00",1152469,2.005,30.17,2.613,0.212,19.03,108.7015,21.56,22.69,31.97,0,111,13.18,22.39,352.2
"2009-08-15 01:30:30",1152470,2.415,33.57,0.969,0.156,19.02,108.6911,21.53,22.66,31.89,0,111,13.18,22.36,355.6
"2009-08-15 01:31:00",1152471,2.39,33.03,1.811,0.202,19.06,108.6689,21.48,22.61,31.96,0,111,13.18,22.30,355.0
"2009-08-15 01:31:30",1152472,2.407,31.04,2.138,0.232,19.12,108.6616,21.46,22.58,32.51,0,111,13.18,22.28,353.0
"2009-08-15 01:32:00",1152473,2.547,28.68,2.073,0.183,19.17,108.6374,21.4,22.56,33.79,0,111,13.18,22.22,350.7
"2009-08-15 01:32:30",1152474,2.425,28.61,2.4,0.255,19.14,108.6329,21.38,22.53,34.4,0,111,13.18,22.21,350.6
"2009-08-15 01:33:00",1152475,2.205,25.82,3.462,0.26,19.16,108.6105,21.33,22.5,34.31,0,111,13.18,22.15,347.8
"2009-08-15 01:33:30",1152476,2.072,25.32,2.663,0.139,19.15,108.6003,21.3,22.45,34.98,0,111,13.18,22.13,347.3
"2009-08-15 01:34:00",1152477,2.013,25.45,1.377,0.071,19.15,108.5961,21.29,22.42,35.03,0,111,13.18,22.12,347.5
"2009-08-15 01:34:30",1152478,2.095,24.58,1.696,0.127,19.13,108.5764,21.24,22.4,35.19,0,111,13.18,22.06,346.6
"2009-08-15 01:35:00",1152479,2.215,21.33,1.833,0.093,19.14,108.5672,21.22,22.37,35.99,0,111,13.18,22.04,343.3
"2009-08-15 01:35:30",1152480,2.217,21.29,1.563,0.102,19.15,108.5665,21.21,22.35,36.44,0,111,13.19,22.04,343.3
"2009-08-15 01:36:00",1152481,2.107,20.94,2.094,0.093,19.17,108.5427,21.15,22.31,36.69,0,111,13.19,21.98,342.9
"2009-08-15 01:36:30",1152482,2.115,20.72,1.933,0.12,19.25,108.5387,21.14,22.3,37.02,0,111,13.19,21.97,342.7
"2009-08-15 01:37:00",1152483,2.138,18.07,1.659,0.101,19.28,108.5403,21.15,22.27,36.96,0,111,13.19,21.97,340.1
"2009-08-15 01:37:30",1152484,2.137,16.84,1.667,0.101,19.3,108.535,21.13,22.25,37.36,0,111,13.19,21.96,338.8
"2009-08-15 01:38:00",1152485,2.105,18.03,2.902,0.117,19.33,108.5169,21.09,22.22,37.55,0,111,13.19,21.91,340.0
"2009-08-15 01:38:30",1152486,2.06,18.04,1.305,0.094,19.39,108.5211,21.1,22.19,37.78,0,110.9,13.19,21.92,340.0
"2009-08-15 01:39:00",1152487,1.866,17.58,1.892,0.133,19.42,108.5222,21.1,22.17,37.99,0,111,13.19,21.93,339.6
"2009-08-15 01:39:30",1152488,1.734,14.94,2.506,0.138,19.42,108.4993,21.04,22.15,38.25,0,111,13.19,21.87,336.9
"2009-08-15 01:40:00",1152489,1.592,11.49,4.177,0.175,19.47,108.4929,21.02,22.14,38.4,0,111,13.19,21.85,333.5
"2009-08-15 01:40:30",1152490,1.866,6.938,2.236,0.288,19.44,108.4938,21.03,22.11,38.46,0,110.9,13.19,21.85,328.9
"2009-08-15 01:41:00",1152491,1.752,6.967,2.238,0.262,19.47,108.4751,20.98,22.07,38.61,0,110.9,13.19,21.80,329.0
"2009-08-15 01:41:30",1152492,1.436,7.095,3.37,0.187,19.45,108.4643,20.95,22.05,38.66,0,110.9,13.2,21.78,329.1
"2009-08-15 01:42:00",1152493,1.435,7.141,3.852,0.14,19.46,108.4632,20.95,22.03,38.78,0,110.9,13.2,21.77,329.1
"2009-08-15 01:42:30",1152494,1.498,6.724,3.634,0.161,19.47,108.4421,20.89,22.01,38.9,0,110.9,13.2,21.72,328.7
"2009-08-15 01:43:00",1152495,1.547,6.987,3.437,0.166,19.48,108.4345,20.87,21.98,39.08,0,110.9,13.2,21.70,329.0
"2009-08-15 01:43:30",1152496,1.582,6.687,2.773,0.177,19.52,108.427,20.86,21.95,39.17,0,110.9,13.2,21.68,328.7
"2009-08-15 01:44:00",1152497,1.625,5.376,3.804,0.183,19.55,108.4019,20.79,21.92,39.16,0,110.9,13.2,21.62,327.4
"2009-08-15 01:44:30",1152498,1.34,8.74,3.434,0.133,19.57,108.4005,20.79,21.89,39.21,0,110.9,13.2,21.61,330.7
"2009-08-15 01:45:00",1152499,1.539,14.65,3.794,0.143,19.5,108.378,20.73,21.88,39.3,0,110.9,13.2,21.55,336.6
"2009-08-15 01:45:30",1152500,1.633,16.98,2.692,0.12,19.5,108.3671,20.7,21.83,39.36,0,110.9,13.2,21.53,339.0
"2009-08-15 01:46:00",1152501,1.266,15.29,3.477,0.277,19.54,108.364,20.69,21.81,39.44,0,110.9,13.2,21.52,337.3
"2009-08-15 01:46:30",1152502,0.923,9.38,6.961,0.147,19.63,108.3406,20.63,21.76,39.46,0,110.9,13.2,21.46,331.4
"2009-08-15 01:47:00",1152503,0.884,7.005,5.765,0.139,19.63,108.3333,20.61,21.74,39.48,0,110.9,13.2,21.44,329.0
"2009-08-15 01:47:30",1152504,0.964,9.51,4.818,0.146,19.72,108.3153,20.57,21.71,39.59,0,110.9,13.2,21.39,331.5
"2009-08-15 01:48:00",1152505,1.021,7.542,6.179,0.162,19.78,108.2996,20.53,21.68,39.71,0,110.9,13.2,21.35,329.5
"2009-08-15 01:48:30",1152506,1.168,4.923,3.637,0.159,19.72,108.2965,20.52,21.64,39.81,0,110.9,13.2,21.34,326.9